Run Hereford
12 May 2019

     
Click your name for detailed results

Page 1 of 8 (384 items)
PosBib NoNameTimeChip TimeCategoryCat PosGenderGen PosClubPace
241446Gemma MALLETT01:31:22.101:31:18.9Top 31Female1CROFT AMBREY RUNNING CLUB 8.6 m/hr
521192Kristie HARPER01:39:20.401:39:14.1Top 32Female2HEREFORD TRIATHLON CLUB 7.9 m/hr
551458Juliet MOXON01:40:40.701:40:37.9Top 33Female3WYE VALLEY RUNNERS 7.8 m/hr
591249Clare MALLENDER01:40:57.401:40:51.0FV401Female4HEREFORD COURIERS 7.8 m/hr
601451Leanne MEEK01:41:14.501:40:49.7FV351Female5FOREST OF DEAN AC 7.8 m/hr
611113Jolene BEREZA01:41:28.401:41:19.1FSen1Female6EMERSONS GREEN RUNNING CLUB 7.7 m/hr
671489Esmie SMITH01:42:23.601:41:48.1FV352Female7 7.7 m/hr
701127Sarah BRUNKER01:42:58.601:42:20.2FV353Female8 7.6 m/hr
791409Alice FINLOW01:44:21.101:44:09.4FSen2Female9 7.5 m/hr
881331Eleanor WALCZAK01:45:17.501:44:55.5FSen3Female10 7.5 m/hr
1001151Sarah DAVIES01:46:33.401:46:22.6FV354Female11 7.4 m/hr
1081136Emma CLEAL01:47:29.601:47:20.2FV402Female12HAY HOTFOOTERS 7.3 m/hr
1111487Patricia SINCLAIR01:47:58.401:47:32.7FSen4Female13 7.3 m/hr
1121444Anna MACRAE01:48:04.001:47:42.8FSen5Female14 7.3 m/hr
1171503Hannah WATKINS01:48:50.301:48:42.6FSen6Female15HEREFORD COURIERS 7.2 m/hr
1231384Sally BROATCH01:49:17.901:48:58.1FV451Female16 7.2 m/hr
1261290Natasha PRYCE01:49:34.401:49:13.7FSen7Female17 7.2 m/hr
1271375Ruth BETTERTON01:49:34.601:49:16.3FSen8Female18 7.2 m/hr
1281504Katie WEEKS01:49:35.901:48:57.2FSen9Female19 7.2 m/hr
1291304Lara SEAL01:49:36.401:49:32.2FSen10Female20WYE VALLEY RUNNERS 7.2 m/hr
1311393Lynne COMPTON01:49:56.601:49:40.8FV501Female21WYE VALLEY RUNNERS 7.1 m/hr
1371325Anna THOMAS01:51:44.701:51:33.4FV403Female22 7.0 m/hr
1391174Henrietta FOSTER01:52:12.101:51:39.0FSen11Female23 7.0 m/hr
1441523Juliette ABSON01:52:30.901:52:20.9FSen12Female24 7.0 m/hr
1451475Ann PRITCHARD01:52:41.301:52:26.9FV502Female25WYE VALLEY RUNNERS 7.0 m/hr
1491469Ali PHILLIPS01:53:13.801:52:49.1FV404Female26SPIRIT OF MONMOUTH 6.9 m/hr
1501414Aisling FREETH01:53:17.101:52:42.9FSen13Female27HEREFORD COURIERS 6.9 m/hr
1551143Aimee CRAINE01:53:48.001:53:22.3FSen14Female28 6.9 m/hr
1571441Leah LEWIS01:54:10.901:53:34.1FSen15Female29 6.9 m/hr
1591161Jan EDWARDS01:54:32.901:54:17.6FV601Female30WYE VALLEY RUNNERS 6.9 m/hr
1621236Catherine LENG01:54:44.301:54:35.1FSen16Female31 6.9 m/hr
1711220Ieva JOKUBAITYTE01:55:01.701:54:57.3FSen17Female32 6.8 m/hr
1741507Lucy WILDING01:55:02.601:54:58.9FSen18Female33CROFT AMBREY RUNNING CLUB 6.8 m/hr
1751505Melanie WHISTANCE-POCKETT01:55:02.601:54:43.2FV405Female34 6.8 m/hr
1761528Roxy WOODFIELD01:55:04.101:55:00.1FSen19Female35CROFT AMBREY RUNNING CLUB 6.8 m/hr
1831360Marina WRIGHT01:56:02.601:55:46.4FV406Female36SPIRIT OF MONMOUTH 6.8 m/hr
1861480Lianne ROLLINSON01:56:47.501:56:26.0FSen20Female37BUILTH & DISTRICT RUNNING CLUB 6.7 m/hr
1891319Emma SULLIVAN01:56:57.801:56:29.1FSen21Female38 6.7 m/hr
1901255Anastasia MAZINA-SCOTT01:56:59.201:56:50.5FSen22Female39 6.7 m/hr
1951443Rose LOWSON01:57:29.801:57:23.9FV452Female40 6.7 m/hr
1971239Jennifer LEWIS01:57:36.301:57:18.9FV407Female41 6.7 m/hr
2021305Avril SEFTEL01:58:23.001:57:56.9FV453Female42 6.6 m/hr
2041109Sarah BAYLEY01:58:37.901:57:54.5FV355Female43 6.6 m/hr
2091105Tori ANDERSON01:59:02.901:58:17.8FV356Female44 6.6 m/hr
2131389Rachel CASELEY01:59:20.301:59:00.7FSen23Female45 6.6 m/hr
2161226Angharad JONES01:59:28.401:58:55.2FSen24Female46 6.6 m/hr
2211352Rae WILLIAMS01:59:56.101:59:12.1FSen25Female47 6.6 m/hr
2221511Katie WILLIAMS01:59:57.701:59:35.9FSen26Female48 6.6 m/hr
2261186Monika GORSKA02:00:20.001:59:53.1FV357Female49 6.5 m/hr
2291497Sonja TOMEV02:00:36.102:00:01.9FV358Female50 6.5 m/hr
Page 1 of 8 (384 items)
   

fb